DW0935 Siasconset MA US current weather conditions

sailwx.info

Wind from 205 at 15 knots gusting 23

Air temperature 10.6° C
Dewpoint 9.6° C

Last reported at 2019-Dec-09 22:01 UTC.
Time now 2019-Dec-09 23:05 UTC

Location: N 41°17' W 069°58'.
View on Google Maps.

See reports from other nearby stations

  
Tides and Currents Weather Stations Pressure Air Temp Water Temp Dewpoint Dewpoint Depression Visibility Wind Speed Wind Dir Waves Ship Positions
date/time (UTC)wind fromknots sea level pressurealtimeterstation pressurevisibilityair tempwater tempwave heightnotes
2019-Dec-09 22:01 205 15 gusting 23 10.6
2019-Dec-09 21:46 205 13 gusting 24 10.0
2019-Dec-09 21:31 181 13 gusting 20 10.0
2019-Dec-09 21:15 201 13 gusting 21 10.0
2019-Dec-09 21:01 186 13 gusting 24 10.0
2019-Dec-09 20:46 201 13 gusting 23 10.0
2019-Dec-09 20:30 178 8 gusting 13 8.9
2019-Dec-09 20:16 216 10 gusting 15 8.9
2019-Dec-09 20:01 188 9 gusting 14 9.4
2019-Dec-09 19:30 204 9 gusting 16 9.4
2019-Dec-09 19:15 191 8 gusting 12 9.4
2019-Dec-09 19:01 166 8 gusting 13 9.4
2019-Dec-09 18:45 174 7 gusting 11 9.4
2019-Dec-09 18:31 178 8 gusting 17 9.4
2019-Dec-09 18:16 184 10 gusting 19 9.4
2019-Dec-09 18:00 190 9 gusting 19 10.0
2019-Dec-09 17:45 220 10 gusting 18 10.0
2019-Dec-09 17:30 214 11 gusting 19 10.0
2019-Dec-09 17:15 189 9 gusting 15 9.4
2019-Dec-09 17:00 195 10 gusting 17 10.0
2019-Dec-09 16:45 203 8 gusting 16 9.4
2019-Dec-09 16:30 190 10 gusting 16 9.4
2019-Dec-09 16:15 171 13 gusting 20 9.4
2019-Dec-09 16:02 158 11 gusting 18 9.4
2019-Dec-09 15:46 196 10 gusting 16 8.9
2019-Dec-09 15:32 206 10 gusting 15 8.9
2019-Dec-09 15:17 187 10 gusting 16 8.9
2019-Dec-09 15:01 200 12 gusting 17 9.4
2019-Dec-09 14:47 213 12 gusting 18 9.4
2019-Dec-09 14:30 188 10 gusting 18 10.0
2019-Dec-09 14:17 217 11 gusting 17 10.0
2019-Dec-09 14:01 211 10 gusting 18 10.0
2019-Dec-09 13:46 198 13 gusting 19 10.0
2019-Dec-09 13:30 211 11 gusting 18 10.0
2019-Dec-09 13:15 184 10 gusting 18 10.0
2019-Dec-09 13:01 211 10 gusting 16 9.4
2019-Dec-09 12:45 219 9 gusting 16 9.4
2019-Dec-09 12:31 215 10 gusting 17 8.9
2019-Dec-09 12:16 213 10 gusting 16 8.9
2019-Dec-09 12:00 182 10 gusting 16 9.4
2019-Dec-09 11:45 203 10 gusting 19 9.4
2019-Dec-09 11:30 213 11 gusting 18 9.4
2019-Dec-09 11:15 222 10 gusting 17 8.9
2019-Dec-09 11:00 212 10 gusting 15 8.3
2019-Dec-09 10:45 194 9 gusting 16 8.9
2019-Dec-09 10:30 210 11 gusting 19 8.9
2019-Dec-09 10:15 201 13 gusting 21 8.9
2019-Dec-09 10:01 222 10 gusting 17 8.3
2019-Dec-09 09:48 183 9 gusting 16 8.3
2019-Dec-09 09:31 205 8 gusting 14 7.8
2019-Dec-09 09:16 194 7 gusting 14 7.8
2019-Dec-09 09:02 209 9 gusting 16 7.8
2019-Dec-09 08:47 214 9 gusting 15 7.8
2019-Dec-09 08:32 187 7 gusting 13 7.2
2019-Dec-09 08:16 187 9 gusting 15 7.8
2019-Dec-09 08:01 203 10 gusting 18 7.2
2019-Dec-09 07:46 208 9 gusting 13 7.2
2019-Dec-09 07:31 220 7 gusting 16 7.2
2019-Dec-09 07:16 209 10 gusting 18 7.2
2019-Dec-09 07:01 208 9 gusting 17 7.2
2019-Dec-09 06:46 221 9 gusting 14 7.2
2019-Dec-09 06:31 236 8 gusting 13 6.7
2019-Dec-09 06:15 214 6 gusting 12 6.7
2019-Dec-09 06:01 209 7 gusting 12 6.7
2019-Dec-09 05:45 220 8 gusting 13 6.7
2019-Dec-09 05:30 201 10 gusting 13 6.7
2019-Dec-09 05:15 219 6 gusting 16 6.7
2019-Dec-09 05:00 233 8 gusting 16 6.7
2019-Dec-09 04:45 207 7 gusting 14 6.1
2019-Dec-09 04:30 229 9 gusting 14 6.1
2019-Dec-09 04:15 242 8 gusting 13 6.1
2019-Dec-09 04:00 204 8 gusting 15 6.1
2019-Dec-09 03:45 209 12 gusting 19 6.1
2019-Dec-09 03:30 199 10 gusting 16 5.6
2019-Dec-09 03:16 226 11 gusting 17 5.6
2019-Dec-09 03:03 213 10 gusting 22 5.6
2019-Dec-09 02:46 213 10 gusting 26 5.6
2019-Dec-09 02:31 213 13 gusting 18 5.0
2019-Dec-09 02:16 217 10 gusting 17 5.0
2019-Dec-09 02:01 205 9 gusting 17 4.4
2019-Dec-09 01:47 210 10 gusting 19 4.4
2019-Dec-09 01:31 239 10 gusting 19 4.4
2019-Dec-09 01:15 214 13 gusting 23 3.9
2019-Dec-09 01:01 219 12 gusting 25 3.9
2019-Dec-09 00:46 235 12 gusting 18 3.9
2019-Dec-09 00:30 210 10 gusting 16 3.9
2019-Dec-09 00:17 242 8 gusting 17 3.9
2019-Dec-09 00:01 219 11 gusting 18 3.3
2019-Dec-08 23:46 232 9 gusting 17 3.3
2019-Dec-08 23:30 221 8 gusting 14 2.8
2019-Dec-08 23:16 213 9 gusting 15 2.8
2019-Dec-08 23:01 228 8 gusting 14 2.8
2019-Dec-08 22:45 199 8 gusting 13 2.2
2019-Dec-08 22:30 221 10 gusting 13 2.2
2019-Dec-08 22:15 230 11 gusting 18 1.7
2019-Dec-08 22:00 228 7 gusting 13 1.7
2019-Dec-08 21:45 248 7 gusting 12 1.1
2019-Dec-08 21:30 242 7 gusting 13 1.1
2019-Dec-08 21:15 220 8 gusting 13 1.1
2019-Dec-08 21:00 230 7 gusting 13 1.1
2019-Dec-08 20:45 231 9 gusting 13 1.1
2019-Dec-08 20:30 231 8 gusting 13 1.1
2019-Dec-08 20:15 255 6 gusting 13 1.1
2019-Dec-08 20:00 232 9 gusting 13 1.1
2019-Dec-08 19:45 244 6 gusting 13 1.1
2019-Dec-08 19:30 207 8 gusting 13 1.1
2019-Dec-08 19:15 219 5 gusting 11 1.7
2019-Dec-08 19:00 190 7 gusting 13 1.1
2019-Dec-08 18:45 232 6 gusting 12 1.1
2019-Dec-08 18:30 238 5 gusting 11 1.7
2019-Dec-08 18:16 190 2 gusting 8 1.1
2019-Dec-08 18:01 188 3 gusting 11 1.1
2019-Dec-08 17:46 215 6 gusting 9 1.1
2019-Dec-08 17:31 229 5 gusting 9 1.1
2019-Dec-08 17:17 175 4 gusting 7 0.6
2019-Dec-08 17:02 204 4 gusting 8 0.6
2019-Dec-08 16:47 223 4 gusting 7 1.1
2019-Dec-08 16:31 201 3 gusting 8 0.6
2019-Dec-08 16:16 201 4 gusting 9 0.6
2019-Dec-08 16:01 201 5 gusting 9 0.6
2019-Dec-08 15:46 241 4 gusting 10 0.6
2019-Dec-08 15:31 226 4 gusting 7 0.6
2019-Dec-08 15:16 074 0 gusting 2 0.6
2019-Dec-08 15:00 055 0 gusting 2 0.6
2019-Dec-08 14:45 350 -0.0
2019-Dec-08 14:31 315 0 gusting 4 -0.6
2019-Dec-08 14:15 335 1 gusting 3 -0.6
2019-Dec-08 14:01 338 1 gusting 5 -1.1
2019-Dec-08 13:45 353 2 gusting 5 -1.1
2019-Dec-08 13:30 317 2 gusting 5 -1.1
2019-Dec-08 13:15 311 1 gusting 5 -2.2
2019-Dec-08 13:00 293 3 gusting 5 -2.8
2019-Dec-08 12:45 298 3 gusting 6 -2.8
2019-Dec-08 12:30 304 4 gusting 6 -3.3
2019-Dec-08 12:15 304 4 gusting 6 -3.3
2019-Dec-08 12:00 303 4 gusting 6 -3.3
2019-Dec-08 11:45 302 4 gusting 6 -3.3
2019-Dec-08 11:31 303 4 gusting 6 -3.3
2019-Dec-08 11:16 309 5 gusting 6 -3.3
2019-Dec-08 11:01 317 5 gusting 7 -2.8
2019-Dec-08 10:46 341 6 gusting 8 -2.8
2019-Dec-08 10:32 332 5 gusting 8 -2.8
2019-Dec-08 10:16 301 5 gusting 8 -2.8
2019-Dec-08 10:01 319 4 gusting 8 -2.8
2019-Dec-08 09:46 309 6 gusting 8 -2.8
2019-Dec-08 09:31 310 4 gusting 8 -2.8
2019-Dec-08 09:16 337 5 gusting 10 -2.8
2019-Dec-08 09:01 329 6 gusting 8 -2.8
2019-Dec-08 08:46 319 5 gusting 12 -2.2
2019-Dec-08 08:31 313 5 gusting 7 -2.8
2019-Dec-08 08:17 303 6 gusting 11 -2.2
2019-Dec-08 08:00 319 6 gusting 11 -2.2
2019-Dec-08 07:45 342 6 gusting 12 -2.2
2019-Dec-08 07:30 319 6 gusting 11 -2.2
2019-Dec-08 07:16 312 6 gusting 11 -2.2
2019-Dec-08 07:01 323 6 gusting 11 -2.2
2019-Dec-08 06:46 330 8 gusting 13 -1.7
2019-Dec-08 06:30 315 5 gusting 11 -2.2
2019-Dec-08 06:15 303 6 gusting 13 -1.7
2019-Dec-08 06:00 332 7 gusting 12 -1.7
2019-Dec-08 05:45 315 6 gusting 11 -1.7
2019-Dec-08 05:30 310 6 gusting 13 -1.7
2019-Dec-08 05:15 309 6 gusting 10 -1.7
2019-Dec-08 05:00 312 6 gusting 13 -1.7
2019-Dec-08 04:45 314 6 gusting 13 -1.7
2019-Dec-08 04:15 336 6 gusting 13 -1.7
2019-Dec-08 04:02 329 8 gusting 16 -1.7
2019-Dec-08 03:46 339 8 gusting 12 -1.7
2019-Dec-08 03:31 329 7 gusting 16 -1.7
2019-Dec-08 03:16 325 8 gusting 14 -1.7
2019-Dec-08 03:02 340 7 gusting 13 -1.7
2019-Dec-08 02:46 323 6 gusting 10 -1.7
2019-Dec-08 02:32 323 7 gusting 14 -1.1
2019-Dec-08 02:16 326 7 gusting 14 -1.1
2019-Dec-08 02:01 334 10 gusting 16 -1.1
2019-Dec-08 01:46 313 7 gusting 14 -1.1
2019-Dec-08 01:32 318 8 gusting 18 -1.1
2019-Dec-08 01:16 327 6 gusting 11 -1.1
2019-Dec-08 01:01 337 7 gusting 15 -1.1
2019-Dec-08 00:46 332 9 gusting 14 -0.6
2019-Dec-08 00:31 317 9 gusting 13 -0.6
2019-Dec-08 00:15 305 7 gusting 15 -0.6
2019-Dec-08 00:00 301 7 gusting 13 -0.6
2019-Dec-07 23:45 323 6 gusting 9 -0.0
2019-Dec-07 23:30 311 4 gusting 8 -0.0
2019-Dec-07 23:15 348 6 gusting 10 -0.0
2019-Dec-07 23:00 315 4 gusting 7 -0.6